Mobile Downtown, AL

11:02 AM CDT on May 23, 2017 (GMT -0500)
Mobile Downtown

Weather History for KBFM - February, 2013

Change the Weather History Date:

Sunday, February 24, 2013

  Actual Average Record
Temperature  
Mean Temperature 58 °F -  
Max Temperature 69 °F 62 °F 78 °F (2012)
Min Temperature 48 °F 45 °F 34 °F (2002)
Degree Days  
Heating Degree Days 6    
Growing Degree Days 8 (Base 50)    
Moisture  
Dew Point 53 °F    
Average Humidity 87    
Maximum Humidity 100    
Minimum Humidity 58    
Precipitation  
Precipitation 0.29 in - - ()
Sea Level Pressure  
Sea Level Pressure 29.94 in    
Wind  
Wind Speed 6 mph (NE)    
Max Wind Speed 12 mph    
Max Gust Speed -    
Visibility 8 miles    
Events Rain , Thunderstorm    
Averages and records for this station are not official NWS values.
T = Trace of Precipitation, MM = Missing Value Source: NWS Daily Summary

Daily Weather History Graph

Daily Weather History Graph

Search for Another Location

Airport or City:

Trip Planner

Search our weather history database for the weather conditions in past years. The results will help you decide how hot, cold, wet, or windy it might be!

Date:

Astronomy

Feb. 24, 2013 Rise Set
Actual Time 6:23 AM CST 5:47 PM CST
Civil Twilight 5:59 AM CST 6:11 PM CST
Nautical Twilight 5:31 AM CST 6:39 PM CST
Astronomical Twilight 5:03 AM CST 7:07 PM CST
Moon 4:58 PM CST (2/24) 5:19 AM CST (2/24)
Length of Visible Light 12h 12m
Length of Day
11h 23m
Waxing Gibbous, 99% of the Moon is Illuminated
Feb 24
Waxing Gibbous
Feb 25
Full
Mar 4
Last Quarter
Mar 11
New
Mar 19
First Quarter

Hourly Weather History & Observations

Time (CST) Temp. Dew Point Humidity Pressure Visibility Wind Dir Wind Speed Gust Speed Precip Events Conditions
12:13 AM 55.4 °F 51.8 °F 88% 29.98 in 10.0 mi NNE 9.2 mph - N/A   Overcast
12:53 AM 55.0 °F 52.0 °F 89% 29.98 in 10.0 mi NNE 6.9 mph - N/A   Overcast
1:53 AM 54.0 °F 52.0 °F 93% 29.96 in 10.0 mi NNE 5.8 mph - N/A   Overcast
2:53 AM 52.0 °F 51.1 °F 97% 29.96 in 10.0 mi North 5.8 mph - N/A   Partly Cloudy
3:53 AM 52.0 °F 51.1 °F 97% 29.96 in 10.0 mi North 4.6 mph - N/A   Clear
4:53 AM 48.9 °F 48.0 °F 97% 29.96 in 7.0 mi NNW 6.9 mph - N/A   Clear
6:49 AM 50.0 °F 48.2 °F 94% 29.99 in 7.0 mi North 6.9 mph - N/A   Partly Cloudy
6:53 AM 50.0 °F 48.9 °F 96% 29.99 in 7.0 mi NNE 8.1 mph - N/A   Scattered Clouds
7:02 AM 50.0 °F 48.2 °F 94% 29.99 in 6.0 mi NNE 11.5 mph - N/A   Mostly Cloudy
7:53 AM 50.0 °F 48.0 °F 93% 30.01 in 6.0 mi NE 10.4 mph - N/A   Overcast
8:53 AM 51.1 °F 50.0 °F 96% 30.01 in 6.0 mi NE 9.2 mph - N/A   Overcast
9:00 AM 51.8 °F 50.0 °F 94% 30.01 in 6.0 mi NE 9.2 mph - N/A   Overcast
9:53 AM 53.1 °F 51.1 °F 93% 30.02 in 6.0 mi NNE 6.9 mph - N/A   Overcast
10:53 AM 57.9 °F 52.0 °F 81% 30.01 in 10.0 mi NNE 6.9 mph - N/A   Partly Cloudy
11:53 AM 62.1 °F 53.1 °F 72% 29.99 in 10.0 mi Variable 4.6 mph - N/A   Clear
12:53 PM 64.9 °F 53.1 °F 65% 29.96 in 10.0 mi NNE 4.6 mph - N/A   Scattered Clouds
1:53 PM 68.0 °F 54.0 °F 61% 29.93 in 10.0 mi NNE 5.8 mph - N/A   Partly Cloudy
2:53 PM 69.1 °F 54.0 °F 58% 29.93 in 10.0 mi Calm Calm - N/A   Mostly Cloudy
3:53 PM 66.9 °F 55.0 °F 66% 29.91 in 10.0 mi South 5.8 mph - N/A   Partly Cloudy
4:53 PM 64.9 °F 55.0 °F 70% 29.91 in 10.0 mi SSE 3.5 mph - N/A   Mostly Cloudy
5:53 PM 64.0 °F 57.0 °F 78% 29.90 in 10.0 mi Calm Calm - N/A   Overcast
6:53 PM 63.0 °F 55.0 °F 75% 29.91 in 10.0 mi SE 4.6 mph - N/A   Overcast
7:53 PM 60.1 °F 55.9 °F 86% 29.90 in 10.0 mi Calm Calm - N/A   Overcast
8:53 PM 61.0 °F 57.0 °F 87% 29.91 in 10.0 mi Calm Calm - N/A   Overcast
9:21 PM 60.8 °F 57.2 °F 88% 29.93 in 7.0 mi SSE 4.6 mph - 0.03 in Rain Rain
9:39 PM 59.0 °F 57.2 °F 94% 29.90 in 5.0 mi ESE 9.2 mph - 0.08 in Rain , Thunderstorm Heavy Rain
9:48 PM 59.0 °F 57.2 °F 94% 29.90 in 6.0 mi East 3.5 mph - 0.10 in Rain Rain
9:49 PM 59.0 °F 57.0 °F 93% 29.89 in 6.0 mi East 4.6 mph - 0.10 in Rain Rain
10:43 PM 59.0 °F 55.4 °F 88% 29.88 in 8.0 mi NE 3.5 mph - 0.10 in Rain , Thunderstorm Rain
10:53 PM 59.0 °F 57.0 °F 93% 29.88 in 5.0 mi ENE 5.8 mph - 0.13 in Rain , Thunderstorm Rain
11:13 PM 57.2 °F 57.2 °F 100% 29.87 in 6.0 mi East 9.2 mph - 0.03 in Rain , Thunderstorm Rain
11:34 PM 57.2 °F 57.2 °F 100% 29.85 in 9.0 mi ENE 9.2 mph - 0.05 in Rain Light Rain
11:53 PM 57.9 °F 57.0 °F 97% 29.88 in 10.0 mi Calm Calm - 0.06 in Rain Light Rain